When you browse on this site, cookies collect data to enhance your experience and personalize the content and advertising you see.
Visit our Privacy Policy to learn more. By continuing to use the site, you agree to this use of cookies and data.
  • In Czech Republic
  • List of Countries
  • For 7 days
  • Water Temperature
  • Weather Map
  • Weather Widgets
  • user-avatar
    Login

    Hourly Weather Prutz

    Today, 3 April, Friday

    Time Temperature Precipitation Wind Pressure Humidity
    00:00 -3°C° 0 mm 1 mps 626 mmHg 85%
    01:00 -4°C° 0 mm 1 mps 626 mmHg 85%
    02:00 -4°C° 0 mm 1 mps 626 mmHg 86%
    03:00 -4°C° 0 mm 1 mps 626 mmHg 87%
    04:00 -4°C° 0 mm 1 mps 626 mmHg 87%
    05:00 -3°C° 0.1 mm 1 mps 627 mmHg 89%
    06:00 -2°C° 0.1 mm 1 mps 627 mmHg 90%
    07:00 -2°C° 0.1 mm 1 mps 628 mmHg 91%
    08:00 0°C° 0 mm 1 mps 628 mmHg 89%
    09:00 +1°C° 0 mm 1 mps 629 mmHg 86%
    10:00 +3°C° 0 mm 1 mps 629 mmHg 84%
    11:00 +3°C° 0.1 mm 1 mps 629 mmHg 83%
    12:00 +3°C° 0.1 mm 1 mps 629 mmHg 83%
    13:00 +4°C° 0.1 mm 1 mps 629 mmHg 83%
    14:00 +4°C° 0.1 mm 1 mps 629 mmHg 83%
    15:00 +4°C° 0.1 mm 1 mps 629 mmHg 83%
    16:00 +4°C° 0.1 mm 1 mps 629 mmHg 83%
    17:00 +2°C° 0.1 mm 1 mps 629 mmHg 87%
    18:00 +1°C° 0.1 mm 1 mps 629 mmHg 90%
    19:00 0°C° 0.1 mm 1 mps 629 mmHg 94%
    20:00 -1°C° 0 mm 1 mps 630 mmHg 94%
    21:00 -1°C° 0 mm 1 mps 630 mmHg 93%
    22:00 -3°C° 0 mm 0 mps 630 mmHg 93%
    23:00 -2°C° 0 mm 1 mps 630 mmHg 92%

    Tomorrow, 4 April, Saturday

    Time Temperature Precipitation Wind Pressure Humidity
    00:00 -3°C° 0 mm 1 mps 631 mmHg 90%
    01:00 -3°C° 0 mm 1 mps 631 mmHg 89%
    02:00 -3°C° 0 mm 1 mps 631 mmHg 86%
    03:00 -4°C° 0 mm 1 mps 631 mmHg 84%
    04:00 -4°C° 0 mm 1 mps 631 mmHg 81%
    05:00 -3°C° 0 mm 1 mps 631 mmHg 78%
    06:00 -3°C° 0 mm 1 mps 632 mmHg 75%
    07:00 -2°C° 0 mm 1 mps 632 mmHg 72%
    08:00 0°C° 0 mm 1 mps 633 mmHg 67%
    09:00 +2°C° 0 mm 1 mps 634 mmHg 63%
    10:00 +3°C° 0 mm 0 mps 634 mmHg 59%
    11:00 +5°C° 0 mm 1 mps 634 mmHg 59%
    12:00 +6°C° 0 mm 1 mps 634 mmHg 59%
    13:00 +7°C° 0 mm 1 mps 634 mmHg 60%
    14:00 +7°C° 0 mm 1 mps 634 mmHg 61%
    15:00 +7°C° 0 mm 1 mps 634 mmHg 63%
    16:00 +7°C° 0 mm 1 mps 634 mmHg 65%
    17:00 +5°C° 0 mm 1 mps 634 mmHg 71%
    18:00 +2°C° 0 mm 0 mps 633 mmHg 77%
    19:00 0°C° 0 mm 0 mps 633 mmHg 83%
    20:00 +1°C° 0 mm 1 mps 634 mmHg 82%
    21:00 +1°C° 0 mm 1 mps 634 mmHg 81%
    22:00 +1°C° 0 mm 1 mps 635 mmHg 80%
    23:00 +1°C° 0 mm 1 mps 635 mmHg 79%

    Day after tomorrow, 5 April, Sunday

    Time Temperature Precipitation Wind Pressure Humidity
    00:00 -2°C° 0 mm 2 mps 635 mmHg 78%
    01:00 -2°C° 0 mm 2 mps 635 mmHg 76%
    02:00 -2°C° 0 mm 2 mps 635 mmHg 76%
    03:00 -2°C° 0 mm 2 mps 635 mmHg 75%
    04:00 -2°C° 0 mm 2 mps 635 mmHg 74%
    05:00 -2°C° 0 mm 2 mps 635 mmHg 73%
    06:00 -1°C° 0 mm 2 mps 636 mmHg 72%
    07:00 -1°C° 0 mm 2 mps 636 mmHg 71%
    08:00 +2°C° 0 mm 2 mps 636 mmHg 68%
    09:00 +5°C° 0 mm 1 mps 637 mmHg 64%
    10:00 +8°C° 0 mm 1 mps 637 mmHg 61%
    11:00 +9°C° 0 mm 1 mps 637 mmHg 59%
    12:00 +10°C° 0 mm 1 mps 637 mmHg 57%
    13:00 +11°C° 0 mm 1 mps 638 mmHg 54%
    14:00 +10°C° 0 mm 1 mps 637 mmHg 56%
    15:00 +10°C° 0 mm 1 mps 637 mmHg 57%
    16:00 +10°C° 0 mm 1 mps 637 mmHg 59%
    17:00 +7°C° 0 mm 2 mps 636 mmHg 66%
    18:00 +5°C° 0 mm 2 mps 635 mmHg 73%
    19:00 +3°C° 0 mm 2 mps 635 mmHg 81%
    20:00 +3°C° 0 mm 2 mps 635 mmHg 81%
    21:00 +1°C° 0 mm 3 mps 636 mmHg 82%
    22:00 +1°C° 0 mm 3 mps 636 mmHg 82%
    23:00 0°C° 0 mm 3 mps 636 mmHg 83%

    6 April, Monday

    Time Temperature Precipitation Wind Pressure Humidity
    00:00 0°C° 0 mm 3 mps 636 mmHg 84%
    01:00 0°C° 0 mm 3 mps 636 mmHg 84%
    02:00 0°C° 0 mm 3 mps 636 mmHg 83%
    03:00 -1°C° 0 mm 3 mps 636 mmHg 81%
    04:00 -1°C° 0 mm 3 mps 636 mmHg 80%
    05:00 +1°C° 0 mm 2 mps 636 mmHg 76%
    06:00 +1°C° 0 mm 2 mps 637 mmHg 72%
    07:00 +2°C° 0 mm 2 mps 637 mmHg 68%
    08:00 +4°C° 0 mm 2 mps 638 mmHg 62%
    09:00 +7°C° 0 mm 1 mps 638 mmHg 55%
    10:00 +9°C° 0 mm 1 mps 639 mmHg 48%
    11:00 +10°C° 0 mm 1 mps 639 mmHg 46%
    12:00 +11°C° 0 mm 1 mps 639 mmHg 43%
    13:00 +12°C° 0 mm 1 mps 640 mmHg 41%
    14:00 +12°C° 0 mm 1 mps 639 mmHg 42%
    15:00 +12°C° 0 mm 1 mps 639 mmHg 43%
    16:00 +12°C° 0 mm 1 mps 639 mmHg 45%
    17:00 +10°C° 0 mm 1 mps 639 mmHg 56%
    18:00 +7°C° 0 mm 1 mps 638 mmHg 68%
    19:00 +4°C° 0 mm 0 mps 637 mmHg 80%
    20:00 +3°C° 0 mm 0 mps 638 mmHg 81%
    21:00 +3°C° 0 mm 0 mps 638 mmHg 82%
    22:00 +2°C° 0 mm 0 mps 639 mmHg 83%
    23:00 +2°C° 0 mm 0 mps 639 mmHg 84%

    7 April, Tuesday

    Time Temperature Precipitation Wind Pressure Humidity
    00:00 +2°C° 0 mm 0 mps 639 mmHg 85%
    01:00 +2°C° 0 mm 0 mps 639 mmHg 86%
    02:00 +3°C° 0 mm 1 mps 639 mmHg 87%
    03:00 +3°C° 0 mm 1 mps 639 mmHg 89%
    04:00 +3°C° 0 mm 1 mps 639 mmHg 91%
    05:00 +4°C° 0 mm 1 mps 640 mmHg 90%
    06:00 +4°C° 0 mm 1 mps 640 mmHg 89%
    07:00 +5°C° 0 mm 1 mps 640 mmHg 88%
    08:00 +7°C° 0 mm 1 mps 641 mmHg 79%
    09:00 +8°C° 0 mm 1 mps 641 mmHg 70%
    10:00 +10°C° 0 mm 1 mps 642 mmHg 61%
    11:00 +11°C° 0 mm 1 mps 642 mmHg 57%
    12:00 +12°C° 0 mm 1 mps 642 mmHg 53%
    13:00 +12°C° 0 mm 1 mps 642 mmHg 49%
    14:00 +12°C° 0 mm 2 mps 642 mmHg 50%
    15:00 +12°C° 0 mm 2 mps 642 mmHg 52%
    16:00 +12°C° 0 mm 2 mps 642 mmHg 53%
    17:00 +10°C° 0 mm 1 mps 641 mmHg 64%
    18:00 +8°C° 0 mm 1 mps 640 mmHg 76%
    19:00 +5°C° 0 mm 1 mps 639 mmHg 87%
    20:00 +5°C° 0 mm 1 mps 639 mmHg 88%
    21:00 +5°C° 0 mm 1 mps 640 mmHg 89%
    22:00 +4°C° 0 mm 1 mps 640 mmHg 90%
    23:00 +4°C° 0 mm 1 mps 640 mmHg 89%

    8 April, Wednesday

    Time Temperature Precipitation Wind Pressure Humidity
    00:00 +4°C° 0 mm 1 mps 640 mmHg 88%
    01:00 +4°C° 0 mm 1 mps 640 mmHg 88%
    02:00 +4°C° 0 mm 1 mps 640 mmHg 88%
    03:00 +4°C° 0 mm 1 mps 640 mmHg 88%
    04:00 +4°C° 0 mm 1 mps 640 mmHg 88%
    05:00 +4°C° 0 mm 1 mps 640 mmHg 85%
    06:00 +5°C° 0 mm 1 mps 641 mmHg 83%
    07:00 +6°C° 0 mm 1 mps 641 mmHg 80%
    08:00 +8°C° 0 mm 1 mps 641 mmHg 72%
    09:00 +10°C° 0 mm 1 mps 642 mmHg 64%
    10:00 +12°C° 0 mm 1 mps 642 mmHg 56%
    11:00 +12°C° 0 mm 1 mps 642 mmHg 53%
    12:00 +13°C° 0 mm 1 mps 642 mmHg 50%
    13:00 +14°C° 0 mm 1 mps 642 mmHg 48%
    14:00 +13°C° 0.1 mm 1 mps 641 mmHg 50%
    15:00 +13°C° 0.1 mm 1 mps 641 mmHg 53%
    16:00 +13°C° 0.1 mm 1 mps 641 mmHg 55%
    17:00 +11°C° 0.2 mm 1 mps 640 mmHg 65%
    18:00 +8°C° 0.2 mm 1 mps 639 mmHg 74%
    19:00 +6°C° 0.2 mm 1 mps 638 mmHg 83%
    20:00 +6°C° 0.1 mm 1 mps 639 mmHg 83%
    21:00 +6°C° 0.1 mm 1 mps 639 mmHg 82%
    22:00 +5°C° 0.1 mm 1 mps 639 mmHg 81%
    23:00 +5°C° 0 mm 1 mps 639 mmHg 81%
    Show more